Volver al catálogo

STARLINK-3505

ActivoComunicacionesVLEO
NORAD 51750·PAYLOAD·🇺🇸 United States

Lanzado Feb 21, 2022 desde Cape Canaveral Space Force Station

Loading…

Próximos Pases (próximas 24 horas)

TLE

ActualizadoSource: CelesTrak SupGP

Época: Sep 14, 2026, 21:23 UTC

1 51750C 22016AN  26257.89145833 -.00030226  00000+0 -97173-3 0  2573
2 51750  53.1587 167.9883 0001003  91.8159 282.0559 15.31726017    13

Sigue STARLINK-3505 en tiempo real con AllMySat

Download on the App Store